User: anonymous   Login
Location: Miami, Florida
(25.6830°N, 80.1700°W)
Time: 02:00:06
(UTC-04:00)
Language:

Vanguard 2 Rocket - Orbit

View from above orbital plane
View from above orbital plane
View from above satellite
View from above satellite

Ground track
Ground track

The orbit data is extracted from the following two-line orbital elements,

1    12U 59001B   18049.44790682 +.00000323 +00000-0 +17333-3 0  9998
2    12 032.9111 084.7069 1666272 287.4101 055.1551 11.44174642182590
Epoch (UTC): 18 February 2018 10:44:59
Eccentricity: 0.1666272
inclination: 32.9111°
perigee height: 555 km
apogee height: 3327 km
right ascension of ascending node: 84.7069°
argument of perigee: 287.4101°
revolutions per day: 11.44174642
mean anomaly at epoch: 55.1551°
orbit number at epoch: 18259

The dashed part of the orbit path shows where the satellite is in the earth's shadow,  

DLR